Time,TemperatureF,DewpointF,PressureIn,WindDirection,WindDirectionDegrees,WindSpeedMPH,WindSpeedGustMPH,Humidity,HourlyPrecipIn,Conditions,Clouds,dailyrainin,SoftwareType,DateUTC
2013-02-25 06:46:00,42.0,39.3,29.94,SE,135,0.0,0.0,90,0.00,,,0.00,WUHU216HW,2013-02-25 05:46:00,
2013-02-25 06:51:00,42.0,39.3,29.94,East,90,0.0,1.3,90,0.00,,,0.00,WUHU216HW,2013-02-25 05:51:00,
2013-02-25 06:56:00,42.0,39.3,29.95,ESE,113,0.0,1.3,90,0.00,,,0.00,WUHU216HW,2013-02-25 05:56:00,
2013-02-25 07:01:00,42.0,39.3,29.95,ENE,68,0.0,0.0,90,0.00,,,0.00,WUHU216HW,2013-02-25 06:01:00,
2013-02-25 07:06:00,42.0,39.3,29.95,ESE,113,0.0,0.0,90,0.00,,,0.00,WUHU216HW,2013-02-25 06:06:00,
2013-02-25 07:11:00,41.9,39.3,29.96,ENE,68,0.0,0.0,90,0.00,,,0.00,WUHU216HW,2013-02-25 06:11:00,
2013-02-25 07:16:00,41.9,39.2,29.96,SE,135,0.0,0.0,90,0.00,,,0.00,WUHU216HW,2013-02-25 06:16:00,
2013-02-25 07:21:00,42.0,39.3,29.96,East,90,0.0,1.5,90,0.00,,,0.00,WUHU216HW,2013-02-25 06:21:00,
2013-02-25 07:26:00,41.9,39.2,29.96,ENE,68,0.0,1.5,90,0.00,,,0.00,WUHU216HW,2013-02-25 06:26:00,
2013-02-25 07:31:00,41.9,39.2,29.96,ENE,68,0.0,0.0,90,0.00,,,0.00,WUHU216HW,2013-02-25 06:31:00,
2013-02-25 07:36:00,42.0,39.3,29.96,ENE,68,0.0,0.0,90,0.00,,,0.00,WUHU216HW,2013-02-25 06:36:00,
2013-02-25 07:41:00,42.0,39.3,29.97,SE,135,0.0,0.0,90,0.00,,,0.00,WUHU216HW,2013-02-25 06:41:00,
2013-02-25 07:46:00,42.4,39.7,29.97,SSE,158,0.0,0.0,90,0.00,,,0.00,WUHU216HW,2013-02-25 06:46:00,
2013-02-25 07:51:00,42.4,39.7,29.97,ESE,113,0.0,0.0,90,0.00,,,0.00,WUHU216HW,2013-02-25 06:51:00,
2013-02-25 07:56:00,42.4,39.7,29.97,ESE,113,0.0,0.0,90,0.00,,,0.00,WUHU216HW,2013-02-25 06:56:00,
2013-02-25 08:01:00,42.6,39.9,29.97,SE,135,0.0,3.1,90,0.00,,,0.00,WUHU216HW,2013-02-25 07:01:00,
2013-02-25 08:06:00,42.6,39.9,29.97,SE,135,2.0,4.2,90,0.00,,,0.00,WUHU216HW,2013-02-25 07:06:00,
2013-02-25 08:11:00,42.6,39.9,29.98,ENE,68,0.0,4.2,90,0.00,,,0.00,WUHU216HW,2013-02-25 07:11:00,
2013-02-25 08:16:00,42.8,40.1,29.98,East,90,2.0,2.0,90,0.00,,,0.00,WUHU216HW,2013-02-25 07:16:00,
2013-02-25 08:21:00,42.8,40.1,29.98,ESE,113,0.8,3.1,90,0.00,,,0.00,WUHU216HW,2013-02-25 07:21:00,
2013-02-25 08:26:00,42.9,40.2,29.98,NE,45,0.0,3.1,90,0.00,,,0.00,WUHU216HW,2013-02-25 07:26:00,
2013-02-25 08:31:00,42.9,40.2,29.98,ENE,68,0.0,1.3,90,0.00,,,0.00,WUHU216HW,2013-02-25 07:31:00,
2013-02-25 08:36:00,42.9,40.2,29.99,East,90,2.0,2.0,90,0.00,,,0.00,WUHU216HW,2013-02-25 07:36:00,
2013-02-25 08:41:00,42.9,40.2,29.99,SE,135,1.1,3.3,90,0.00,,,0.00,WUHU216HW,2013-02-25 07:41:00,
2013-02-25 08:46:00,43.1,40.4,29.98,East,90,0.0,3.3,90,0.00,,,0.00,WUHU216HW,2013-02-25 07:46:00,
2013-02-25 08:51:00,43.3,40.6,29.99,South,180,0.0,3.5,90,0.00,,,0.00,WUHU216HW,2013-02-25 07:51:00,
2013-02-25 08:57:00,43.3,40.6,29.99,ESE,113,0.0,3.5,90,0.00,,,0.00,WUHU216HW,2013-02-25 07:57:00,
2013-02-25 09:02:00,43.5,40.8,29.99,SE,135,1.3,3.5,90,0.00,,,0.00,WUHU216HW,2013-02-25 08:02:00,
2013-02-25 09:07:00,43.5,40.8,29.99,ESE,113,0.0,3.5,90,0.00,,,0.00,WUHU216HW,2013-02-25 08:07:00,
2013-02-25 09:12:00,43.5,40.8,29.99,SE,135,0.0,3.1,90,0.00,,,0.00,WUHU216HW,2013-02-25 08:12:00,
2013-02-25 09:17:00,43.5,40.8,29.99,ESE,113,4.2,4.2,90,0.00,,,0.00,WUHU216HW,2013-02-25 08:17:00,
2013-02-25 09:22:00,43.5,40.8,30.00,East,90,0.0,4.2,90,0.00,,,0.00,WUHU216HW,2013-02-25 08:22:00,
2013-02-25 09:27:00,43.5,40.5,30.00,East,90,0.0,3.8,89,0.00,,,0.00,WUHU216HW,2013-02-25 08:27:00,
2013-02-25 09:32:00,43.5,40.5,30.00,SE,135,3.3,3.3,89,0.00,,,0.00,WUHU216HW,2013-02-25 08:32:00,
2013-02-25 09:37:00,43.7,41.0,30.01,ESE,113,0.0,3.5,90,0.00,,,0.00,WUHU216HW,2013-02-25 08:37:00,
2013-02-25 09:42:00,43.8,41.1,30.02,ENE,68,0.0,3.5,90,0.00,,,0.00,WUHU216HW,2013-02-25 08:42:00,
2013-02-25 09:47:00,43.7,41.0,30.02,SSE,158,0.0,3.8,90,0.00,,,0.00,WUHU216HW,2013-02-25 08:47:00,
2013-02-25 09:52:00,43.8,41.1,30.03,ESE,113,0.0,3.8,90,0.00,,,0.00,WUHU216HW,2013-02-25 08:52:00,
2013-02-25 09:57:00,43.8,41.1,30.03,ESE,113,0.0,3.1,90,0.00,,,0.00,WUHU216HW,2013-02-25 08:57:00,
2013-02-25 10:02:00,44.0,41.3,30.04,ESE,113,3.8,3.8,90,0.00,,,0.00,WUHU216HW,2013-02-25 09:02:00,
2013-02-25 10:07:00,44.2,41.5,30.04,ESE,113,2.9,3.8,90,0.00,,,0.00,WUHU216HW,2013-02-25 09:07:00,
2013-02-25 10:12:00,44.4,41.4,30.04,ESE,113,1.1,2.9,89,0.00,,,0.00,WUHU216HW,2013-02-25 09:12:00,
2013-02-25 10:17:00,44.6,41.5,30.05,East,90,0.8,2.6,89,0.00,,,0.00,WUHU216HW,2013-02-25 09:17:00,
2013-02-25 10:22:00,44.6,41.7,30.06,ESE,113,3.8,3.8,89,0.00,,,0.00,WUHU216HW,2013-02-25 09:22:00,
2013-02-25 10:27:00,44.6,41.5,30.06,ESE,113,3.8,3.8,89,0.00,,,0.00,WUHU216HW,2013-02-25 09:27:00,
2013-02-25 10:32:00,44.6,41.5,30.07,ESE,113,2.9,3.8,89,0.00,,,0.00,WUHU216HW,2013-02-25 09:32:00,
2013-02-25 10:37:00,44.4,41.4,30.07,ESE,113,2.4,3.1,89,0.00,,,0.00,WUHU216HW,2013-02-25 09:37:00,
2013-02-25 10:42:00,44.4,41.4,30.06,SSE,158,1.5,3.5,89,0.00,,,0.00,WUHU216HW,2013-02-25 09:42:00,
2013-02-25 10:47:00,44.4,41.4,30.05,ESE,113,0.0,3.5,89,0.00,,,0.00,WUHU216HW,2013-02-25 09:47:00,
2013-02-25 10:52:00,44.7,41.7,30.05,ESE,113,4.0,5.1,89,0.00,,,0.00,WUHU216HW,2013-02-25 09:52:00,
2013-02-25 10:57:00,45.1,41.8,30.05,ESE,113,2.0,5.1,88,0.00,,,0.00,WUHU216HW,2013-02-25 09:57:00,
2013-02-25 11:02:00,45.1,41.8,30.05,ESE,113,0.0,3.8,88,0.00,,,0.00,WUHU216HW,2013-02-25 10:02:00,
2013-02-25 11:07:00,45.5,42.1,30.05,SE,135,0.0,4.0,88,0.00,,,0.00,WUHU216HW,2013-02-25 10:07:00,
2013-02-25 11:12:00,46.0,42.7,30.05,ENE,68,2.2,4.0,88,0.00,,,0.00,WUHU216HW,2013-02-25 10:12:00,
2013-02-25 11:17:00,46.0,42.6,30.05,East,90,1.3,3.3,88,0.00,,,0.00,WUHU216HW,2013-02-25 10:17:00,
2013-02-25 11:22:00,46.2,42.9,30.05,ESE,113,0.0,3.3,88,0.00,,,0.00,WUHU216HW,2013-02-25 10:22:00,
2013-02-25 11:27:00,46.5,43.2,30.05,East,90,5.1,5.1,88,0.00,,,0.00,WUHU216HW,2013-02-25 10:27:00,
2013-02-25 11:32:00,46.5,42.9,30.05,ENE,68,3.3,5.1,87,0.00,,,0.00,WUHU216HW,2013-02-25 10:32:00,
2013-02-25 11:37:00,46.5,42.9,30.04,East,90,6.7,6.7,87,0.00,,,0.00,WUHU216HW,2013-02-25 10:37:00,
2013-02-25 11:42:00,46.5,42.9,30.05,North,0,0.0,6.7,87,0.00,,,0.00,WUHU216HW,2013-02-25 10:42:00,
2013-02-25 11:47:00,46.9,43.3,30.04,NE,45,2.0,6.0,87,0.00,,,0.00,WUHU216HW,2013-02-25 10:47:00,
2013-02-25 11:52:00,47.1,43.4,30.04,ENE,68,2.9,7.3,87,0.00,,,0.00,WUHU216HW,2013-02-25 10:52:00,
2013-02-25 11:57:00,47.3,43.3,30.04,ESE,113,0.8,7.3,86,0.00,,,0.00,WUHU216HW,2013-02-25 10:57:00,
2013-02-25 12:02:00,47.3,43.3,30.05,East,90,3.3,3.3,86,0.00,,,0.00,WUHU216HW,2013-02-25 11:02:00,
2013-02-25 12:07:00,47.1,43.1,30.05,East,90,0.0,3.3,86,0.00,,,0.00,WUHU216HW,2013-02-25 11:07:00,
2013-02-25 12:12:00,47.1,43.1,30.05,North,0,0.8,3.1,86,0.00,,,0.00,WUHU216HW,2013-02-25 11:12:00,
2013-02-25 12:17:00,46.7,42.8,30.06,NE,45,0.0,2.9,86,0.00,,,0.00,WUHU216HW,2013-02-25 11:17:00,
2013-02-25 12:22:00,46.7,42.8,30.06,ESE,113,2.2,4.9,86,0.00,,,0.00,WUHU216HW,2013-02-25 11:22:00,
2013-02-25 12:27:00,46.7,42.6,30.06,ESE,113,0.0,6.2,86,0.00,,,0.00,WUHU216HW,2013-02-25 11:27:00,
2013-02-25 12:32:00,46.7,42.8,30.05,NE,45,0.0,6.2,86,0.00,,,0.00,WUHU216HW,2013-02-25 11:32:00,
2013-02-25 12:37:00,46.9,42.9,30.06,ESE,113,3.1,3.1,86,0.00,,,0.00,WUHU216HW,2013-02-25 11:37:00,
2013-02-25 12:42:00,46.9,42.9,30.06,East,90,0.0,5.3,86,0.00,,,0.00,WUHU216HW,2013-02-25 11:42:00,
2013-02-25 12:47:00,47.1,43.1,30.05,East,90,2.9,5.3,86,0.00,,,0.00,WUHU216HW,2013-02-25 11:47:00,
2013-02-25 12:52:00,47.1,42.8,30.05,ESE,113,0.0,4.0,85,0.00,,,0.00,WUHU216HW,2013-02-25 11:52:00,
2013-02-25 12:57:00,47.3,43.0,30.06,ESE,113,3.5,6.7,85,0.00,,,0.00,WUHU216HW,2013-02-25 11:57:00,
2013-02-25 13:02:00,47.3,43.0,30.05,ENE,68,0.8,6.7,85,0.00,,,0.00,WUHU216HW,2013-02-25 12:02:00,
2013-02-25 13:07:00,47.3,43.0,30.05,East,90,3.8,3.8,85,0.00,,,0.00,WUHU216HW,2013-02-25 12:07:00,
2013-02-25 13:12:00,47.3,43.0,30.06,SE,135,1.5,3.8,85,0.00,,,0.00,WUHU216HW,2013-02-25 12:12:00,
2013-02-25 13:17:00,47.3,43.0,30.06,ESE,113,0.0,4.2,85,0.00,,,0.00,WUHU216HW,2013-02-25 12:17:00,
2013-02-25 13:22:00,47.4,43.1,30.07,SE,135,2.2,4.2,85,0.00,,,0.00,WUHU216HW,2013-02-25 12:22:00,
2013-02-25 13:27:00,47.3,42.7,30.07,ESE,113,2.0,8.2,84,0.00,,,0.00,WUHU216HW,2013-02-25 12:27:00,
2013-02-25 13:32:00,47.1,42.8,30.08,SE,135,5.5,8.2,85,0.00,,,0.00,WUHU216HW,2013-02-25 12:32:00,
2013-02-25 13:37:00,46.9,42.6,30.08,SSE,158,0.0,6.9,85,0.00,,,0.00,WUHU216HW,2013-02-25 12:37:00,
2013-02-25 13:43:00,47.1,42.8,30.08,SE,135,1.7,5.8,85,0.00,,,0.00,WUHU216HW,2013-02-25 12:43:00,
2013-02-25 13:48:00,47.1,42.8,30.09,SSE,158,1.3,5.8,85,0.00,,,0.00,WUHU216HW,2013-02-25 12:48:00,
2013-02-25 13:53:00,47.1,42.5,30.09,ESE,113,2.2,5.3,84,0.00,,,0.00,WUHU216HW,2013-02-25 12:53:00,
2013-02-25 13:58:00,47.1,42.5,30.09,SE,135,0.6,5.1,84,0.00,,,0.00,WUHU216HW,2013-02-25 12:58:00,
2013-02-25 14:03:00,47.1,42.5,30.09,East,90,0.0,2.6,84,0.00,,,0.00,WUHU216HW,2013-02-25 13:03:00,
2013-02-25 14:08:00,47.1,42.5,30.10,ESE,113,1.5,3.8,84,0.00,,,0.00,WUHU216HW,2013-02-25 13:08:00,
2013-02-25 14:13:00,47.1,42.7,30.10,ESE,113,4.4,4.4,84,0.00,,,0.00,WUHU216HW,2013-02-25 13:13:00,
2013-02-25 14:18:00,47.1,42.5,30.10,ESE,113,2.6,4.4,84,0.00,,,0.00,WUHU216HW,2013-02-25 13:18:00,
2013-02-25 14:23:00,47.1,42.5,30.10,East,90,0.0,4.0,84,0.00,,,0.00,WUHU216HW,2013-02-25 13:23:00,
2013-02-25 14:28:00,47.1,42.5,30.10,ESE,113,0.8,4.4,84,0.00,,,0.00,WUHU216HW,2013-02-25 13:28:00,
2013-02-25 14:33:00,47.1,42.5,30.11,East,90,2.0,4.4,84,0.00,,,0.00,WUHU216HW,2013-02-25 13:33:00,
2013-02-25 14:38:00,47.3,42.7,30.10,NE,45,0.0,4.4,84,0.00,,,0.00,WUHU216HW,2013-02-25 13:38:00,
2013-02-25 14:43:00,47.4,42.8,30.10,NNE,23,0.0,1.3,84,0.00,,,0.00,WUHU216HW,2013-02-25 13:43:00,
2013-02-25 14:48:00,47.4,42.8,30.11,ESE,113,2.4,2.4,84,0.00,,,0.00,WUHU216HW,2013-02-25 13:48:00,
2013-02-25 14:53:00,47.4,42.8,30.10,ESE,113,0.8,2.4,84,0.00,,,0.00,WUHU216HW,2013-02-25 13:53:00,
2013-02-25 14:58:00,47.4,42.8,30.10,East,90,2.4,3.5,84,0.00,,,0.00,WUHU216HW,2013-02-25 13:58:00,
2013-02-25 15:03:00,47.4,42.8,30.09,ESE,113,0.0,3.5,84,0.00,,,0.00,WUHU216HW,2013-02-25 14:03:00,
2013-02-25 15:08:00,47.4,42.8,30.09,East,90,0.0,0.8,84,0.00,,,0.00,WUHU216HW,2013-02-25 14:08:00,
2013-02-25 15:14:00,47.3,42.7,30.09,ENE,68,0.0,0.8,84,0.00,,,0.00,WUHU216HW,2013-02-25 14:14:00,
2013-02-25 15:19:00,47.4,42.8,30.08,ENE,68,0.0,0.0,84,0.00,,,0.00,WUHU216HW,2013-02-25 14:19:00,
2013-02-25 15:24:00,47.4,42.8,30.07,NE,45,0.0,0.0,84,0.00,,,0.00,WUHU216HW,2013-02-25 14:24:00,
2013-02-25 15:30:00,47.4,42.8,30.07,NE,45,0.0,0.0,84,0.00,,,0.00,WUHU216HW,2013-02-25 14:30:00,
2013-02-25 15:35:00,47.3,42.7,30.07,NE,45,0.0,0.0,84,0.00,,,0.00,WUHU216HW,2013-02-25 14:35:00,
2013-02-25 15:40:00,47.4,42.8,30.07,North,0,0.0,2.0,84,0.00,,,0.00,WUHU216HW,2013-02-25 14:40:00,
2013-02-25 15:45:00,47.3,42.7,30.07,NW,315,0.0,2.0,84,0.00,,,0.00,WUHU216HW,2013-02-25 14:45:00,
2013-02-25 15:50:00,47.3,42.8,30.08,North,0,0.0,0.8,84,0.00,,,0.00,WUHU216HW,2013-02-25 14:50:00,
2013-02-25 15:55:00,47.4,42.8,30.07,East,90,1.3,1.3,84,0.00,,,0.00,WUHU216HW,2013-02-25 14:55:00,
2013-02-25 16:00:00,47.4,42.8,30.08,NE,45,0.0,1.3,84,0.00,,,0.00,WUHU216HW,2013-02-25 15:00:00,
2013-02-25 16:05:00,47.3,42.7,30.07,NNW,338,1.7,1.7,84,0.00,,,0.00,WUHU216HW,2013-02-25 15:05:00,
2013-02-25 16:12:00,47.3,43.0,30.07,North,0,0.0,1.7,85,0.00,,,0.00,WUHU216HW,2013-02-25 15:12:00,
2013-02-25 16:17:00,47.1,42.8,30.07,NNE,23,0.0,2.4,85,0.00,,,0.00,WUHU216HW,2013-02-25 15:17:00,
2013-02-25 16:22:00,47.1,42.8,30.07,North,0,0.0,2.4,85,0.00,,,0.00,WUHU216HW,2013-02-25 15:22:00,
2013-02-25 16:27:00,47.1,43.1,30.07,NNE,23,0.0,0.0,86,0.00,,,0.00,WUHU216HW,2013-02-25 15:27:00,
2013-02-25 16:32:00,47.1,43.1,30.07,ENE,68,0.0,0.0,86,0.00,,,0.00,WUHU216HW,2013-02-25 15:32:00,
2013-02-25 16:37:00,47.1,43.1,30.07,NNE,23,0.0,0.0,86,0.00,,,0.00,WUHU216HW,2013-02-25 15:37:00,
2013-02-25 16:42:00,47.1,43.1,30.07,NE,45,0.0,0.8,86,0.00,,,0.00,WUHU216HW,2013-02-25 15:42:00,
2013-02-25 16:47:00,46.9,42.9,30.07,NE,45,0.0,0.8,86,0.00,,,0.00,WUHU216HW,2013-02-25 15:47:00,
2013-02-25 16:52:00,46.9,42.9,30.08,NNE,23,0.0,1.3,86,0.00,,,0.00,WUHU216HW,2013-02-25 15:52:00,
2013-02-25 16:57:00,46.9,42.9,30.09,North,0,0.0,4.4,86,0.00,,,0.00,WUHU216HW,2013-02-25 15:57:00,
2013-02-25 17:02:00,46.9,43.1,30.09,NNW,338,0.0,4.4,86,0.00,,,0.00,WUHU216HW,2013-02-25 16:02:00,
2013-02-25 17:07:00,47.1,43.1,30.10,NW,315,1.5,2.6,86,0.00,,,0.00,WUHU216HW,2013-02-25 16:07:00,
2013-02-25 17:12:00,47.1,43.1,30.10,NNE,23,0.0,2.9,86,0.00,,,0.00,WUHU216HW,2013-02-25 16:12:00,
2013-02-25 17:17:00,47.1,43.1,30.11,North,0,0.0,2.9,86,0.00,,,0.00,WUHU216HW,2013-02-25 16:17:00,
2013-02-25 17:22:00,47.3,43.3,30.12,NNE,23,0.0,1.5,86,0.00,,,0.00,WUHU216HW,2013-02-25 16:22:00,
2013-02-25 17:27:00,47.3,43.3,30.12,NE,45,0.0,2.6,86,0.00,,,0.00,WUHU216HW,2013-02-25 16:27:00,
2013-02-25 17:32:00,47.3,43.3,30.12,NNE,23,4.4,4.4,86,0.00,,,0.00,WUHU216HW,2013-02-25 16:32:00,
2013-02-25 17:37:00,47.3,43.3,30.13,NNE,23,0.0,4.4,86,0.00,,,0.00,WUHU216HW,2013-02-25 16:37:00,
2013-02-25 17:42:00,47.3,43.3,30.12,NNE,23,0.0,1.5,86,0.00,,,0.00,WUHU216HW,2013-02-25 16:42:00,
2013-02-25 17:47:00,47.1,43.1,30.12,NNE,23,0.0,3.3,86,0.00,,,0.00,WUHU216HW,2013-02-25 16:47:00,
2013-02-25 17:52:00,47.1,43.1,30.12,North,0,0.0,3.3,86,0.00,,,0.00,WUHU216HW,2013-02-25 16:52:00,
2013-02-25 17:57:00,47.1,43.1,30.12,North,0,0.0,2.2,86,0.00,,,0.00,WUHU216HW,2013-02-25 16:57:00,
2013-02-25 18:02:00,47.1,43.1,30.12,North,0,0.0,2.2,86,0.00,,,0.00,WUHU216HW,2013-02-25 17:02:00,
2013-02-25 18:07:00,47.1,43.1,30.11,North,0,1.5,1.5,86,0.00,,,0.00,WUHU216HW,2013-02-25 17:07:00,
2013-02-25 18:12:00,47.1,43.1,30.11,NNE,23,0.0,1.5,86,0.00,,,0.00,WUHU216HW,2013-02-25 17:12:00,
2013-02-25 18:17:00,47.1,43.1,30.12,NNW,338,0.8,2.2,86,0.00,,,0.00,WUHU216HW,2013-02-25 17:17:00,
2013-02-25 18:22:00,47.3,43.3,30.12,NNW,338,0.0,2.2,86,0.00,,,0.00,WUHU216HW,2013-02-25 17:22:00,
2013-02-25 18:27:00,47.3,43.3,30.12,NE,45,0.0,2.2,86,0.00,,,0.00,WUHU216HW,2013-02-25 17:27:00,
2013-02-25 18:32:00,47.4,43.5,30.11,NNE,23,0.0,1.5,86,0.00,,,0.00,WUHU216HW,2013-02-25 17:32:00,
2013-02-25 18:37:00,47.4,43.5,30.12,NNE,23,0.0,1.5,86,0.00,,,0.00,WUHU216HW,2013-02-25 17:37:00,
2013-02-25 18:42:00,47.4,43.5,30.12,NE,45,0.0,2.0,86,0.00,,,0.00,WUHU216HW,2013-02-25 17:42:00,
2013-02-25 18:47:00,47.4,43.5,30.12,NE,45,0.0,2.0,86,0.00,,,0.00,WUHU216HW,2013-02-25 17:47:00,
2013-02-25 19:54:00,47.4,43.5,30.11,NNW,338,2.9,2.9,86,0.00,,,0.00,WUHU216HW,2013-02-25 18:54:00,
2013-02-25 20:04:00,47.3,43.3,30.12,North,0,3.1,3.5,86,0.00,,,0.00,WUHU216HW,2013-02-25 19:04:00,
2013-02-25 20:09:00,47.3,43.3,30.12,North,0,3.3,3.5,86,0.00,,,0.00,WUHU216HW,2013-02-25 19:09:00,
2013-02-25 20:14:00,47.3,43.3,30.13,North,0,2.4,3.3,86,0.00,,,0.00,WUHU216HW,2013-02-25 19:14:00,
2013-02-25 20:19:00,47.3,43.3,30.13,North,0,2.4,3.3,86,0.00,,,0.00,WUHU216HW,2013-02-25 19:19:00,
2013-02-25 20:24:00,47.3,43.3,30.14,NE,45,0.0,4.0,86,0.00,,,0.00,WUHU216HW,2013-02-25 19:24:00,
2013-02-25 20:29:00,47.1,43.1,30.15,North,0,1.3,4.0,86,0.00,,,0.00,WUHU216HW,2013-02-25 19:29:00,
2013-02-25 20:34:00,47.1,43.1,30.14,North,0,0.0,2.0,86,0.00,,,0.00,WUHU216HW,2013-02-25 19:34:00,
2013-02-25 20:39:00,47.1,43.1,30.14,NW,315,0.0,3.3,86,0.00,,,0.00,WUHU216HW,2013-02-25 19:39:00,
2013-02-25 20:44:00,46.9,42.9,30.14,North,0,0.0,7.6,86,0.00,,,0.00,WUHU216HW,2013-02-25 19:44:00,
2013-02-25 20:49:00,46.9,42.9,30.14,NNW,338,4.0,7.6,86,0.00,,,0.00,WUHU216HW,2013-02-25 19:49:00,
2013-02-25 20:54:00,46.9,42.9,30.14,NNE,23,1.1,6.2,86,0.00,,,0.00,WUHU216HW,2013-02-25 19:54:00,
2013-02-25 20:59:00,46.7,42.8,30.14,NNE,23,3.1,10.2,86,0.00,,,0.00,WUHU216HW,2013-02-25 19:59:00,
2013-02-25 21:04:00,46.7,42.8,30.15,North,0,0.8,10.2,86,0.00,,,0.00,WUHU216HW,2013-02-25 20:04:00,
2013-02-25 21:09:00,46.7,42.8,30.15,NNW,338,3.1,5.8,86,0.00,,,0.00,WUHU216HW,2013-02-25 20:09:00,